Location: Cuiry
(49.3858°N, 3.7708°E)
Time: 04:44:32
(UTC+00:00)

Meteor 1-12 Rocket - Visible Passes

Search period start: 21 April 2026 00:00
Search period end: 01 May 2026 00:00
Orbit: 854 x 924 km, 81.2° (Epoch: 20 April)

Date Brightness Start Highest point End Pass type
(mag) Time Alt. Az. Time Alt. Az. Time Alt. Az.
21 Apr 7.9 03:19:24 10° NNE 03:21:08 11° NE 03:22:53 10° ENE visible
21 Apr 6.6 20:05:13 10° WSW 20:10:19 28° WNW 20:15:27 10° N visible
22 Apr 7.8 03:18:22 10° NNE 03:20:51 13° NE 03:23:18 10° ENE visible
22 Apr 6.8 20:05:03 10° WSW 20:09:57 25° WNW 20:14:51 10° N visible
23 Apr 7.7 03:17:31 10° NNE 03:20:32 14° NE 03:23:31 10° E visible
23 Apr 7.1 20:04:56 10° WSW 20:09:35 23° WNW 20:14:15 10° N visible
24 Apr 7.5 03:16:45 10° NNE 03:20:13 16° NE 03:23:38 10° E visible
24 Apr 7.3 20:04:51 10° WSW 20:09:14 21° WNW 20:13:38 10° NNW visible
25 Apr 7.4 03:16:03 10° NNE 03:19:53 17° ENE 03:23:40 10° E visible
25 Apr 7.4 20:04:50 10° W 20:08:54 18° WNW 20:12:59 10° NNW visible
26 Apr 7.3 03:15:24 10° NNE 03:19:33 19° ENE 03:23:37 10° ESE visible
26 Apr 7.5 20:04:52 10° W 20:08:34 17° NW 20:12:17 10° NNW visible
27 Apr 7.1 03:14:46 10° N 03:19:11 22° ENE 03:23:33 10° ESE visible
27 Apr 7.7 20:04:58 10° W 20:08:15 15° NW 20:11:32 10° NNW visible
28 Apr 6.9 03:14:09 10° N 03:18:50 24° ENE 03:23:25 10° ESE visible
28 Apr 7.8 20:05:11 10° W 20:07:56 13° NW 20:10:42 10° NNW visible
29 Apr 6.7 03:13:34 10° N 03:18:28 27° ENE 03:23:15 10° ESE visible
29 Apr 8.0 20:05:33 10° WNW 20:07:38 12° NW 20:09:44 10° NNW visible
30 Apr 6.5 03:13:00 10° N 03:18:05 30° ENE 03:23:03 10° SE visible
30 Apr 8.0 20:06:21 10° WNW 20:07:21 10° NW 20:08:21 10° NW visible
